[[{"header":{"parameterUnit":"m.s-1","parameterCategory":1,"la1":30.2991,"la2":30.254,"lo1":-89.0895,"lo2":-89.0444,"dy":0.0017,"dx":0.0017,"nx":28,"ny":28,"refTime":"2025-11-16T09:00:00:Z","depth":0,"parameterNumber":2,"parameterNumberName":"U-component_of_WINDS"},"data":[0,0,0,0,0,0,0,0,0,0,0,0,0,0,0,0,0,0,0,0,0,0,0,0,0,0,0,0,0,0,0,0,0,0,0,0,0,0,0,0,0,0,0,0,0,0,0,0,0,0,0,0,0,0,0,0,0,0,0.033,0.033,0,0.0326,0.0326,0.0326,0.0316,0.0316,0.0315,0.0315,0.0312,0.0312,0.0312,0,0,0,0,0,0,0,0,0,0,0,0,0,0.0328,0.0328,0.033,0.033,0.033,0.0326,0.0326,0.0326,0.0316,0.0316,0.0315,0.0315,0.0312,0.0312,0.0312,0,0,0,0,0,0,0,0,0,0,0,0,0,0.0327,0.0328,0.033,0.0324,0.0323,0.0326,0.0326,0.0326,0.0316,0.0316,0.0315,0.0315,0.0312,0.0312,0.0312,0.032,0,0,0.0313,0.0313,0,0,0,0,0,0,0,0,0.0327,0.0327,0.0325,0.0324,0.0324,0.0321,0.0324,0.0324,0.0316,0.0319,0.0315,0.0315,0.0315,0.0315,0.0315,0.032,0.032,0.0313,0.0313,0.0313,0.0313,0,0,0,0,0,0,0,0.0327,0.0327,0.0328,0.0325,0.0324,0.0322,0.0321,0.0324,0.0319,0.0318,0.0318,0.0317,0.0315,0.0315,0.0315,0.032,0.0313,0.0313,0.0313,0.0313,0.0331,0.0331,0,0,0,0,0,0,0.0328,0.0327,0.0328,0.0328,0.0325,0.0322,0.0322,0.0322,0.0319,0.0318,0.0318,0.0317,0.0315,0.0315,0.0315,0.0324,0.0313,0.0313,0.0313,0.033,0.0331,0.0331,0,0,0,0,0,0,0.0328,0.0328,0.0328,0.0327,0.0327,0.0322,0.0323,0.0322,0.0323,0.0318,0.0317,0.0319,0.0315,0.0315,0.0319,0.0324,0.0313,0.0313,0.033,0.0331,0.0331,0.0342,0,0,0,0,0,0,0.0328,0.0328,0.0331,0.0328,0.0327,0.0332,0.0324,0.0323,0.0323,0.0322,0.0319,0.0318,0.0314,0.0319,0.0319,0.0324,0.0313,0.033,0.033,0.0331,0.0341,0.0343,0.0344,0,0,0,0,0,0.0328,0.0334,0.0331,0.0331,0.0331,0.0333,0.0333,0.0328,0.0323,0.0326,0.0323,0.0318,0.0323,0.0319,0.0319,0.0324,0.0329,0.033,0.0331,0.0341,0.0343,0.0344,0,0,0,0,0,0,0.0338,0.0334,0.033,0.0336,0.0335,0.0331,0.0334,0.033,0.033,0.0329,0.0324,0.0323,0.0328,0.0327,0.0322,0.0332,0.0325,0.0326,0.0333,0.0335,0.0336,0.0336,0.0313,0,0,0,0,0,0.0341,0.0343,0.0339,0.0344,0.0344,0.0339,0.034,0.0336,0.0335,0.0335,0.0332,0.0331,0.0333,0.0333,0.0334,0.0341,0.034,0.0345,0.0346,0.0348,0.0348,0.0352,0.0354,0.0334,0.0334,0.0334,0,0,0.0347,0.0345,0.0347,0.0346,0.0345,0.0347,0.0339,0.0342,0.0343,0.0335,0.0339,0.0337,0.0336,0.0341,0.0344,0.034,0.0354,0.0349,0.035,0.035,0.0353,0.0355,0.0357,0.0334,0.0334,0.0334,0,0,0.036,0.0358,0.0362,0.0361,0.036,0.0357,0.0358,0.0355,0.0353,0.0357,0.0351,0.0353,0.0355,0.0354,0.0354,0.0366,0.0362,0.0367,0.0375,0.0379,0.038,0.0382,0.0386,0.0388,0.0368,0.0368,0.0368,0,0.0368,0.037,0.0365,0.0368,0.0368,0.0361,0.0365,0.0365,0.0363,0.0364,0.036,0.0363,0.0361,0.0367,0.037,0.037,0.0371,0.0367,0.038,0.0382,0.0383,0.0387,0.0389,0.0369,0.0368,0.0368,0.0368,0,0.038,0.0382,0.0386,0.0385,0.0386,0.0389,0.0385,0.0386,0.0382,0.038,0.0384,0.0382,0.0382,0.0383,0.038,0.0388,0.0386,0.0382,0.0375,0.0386,0.0389,0.0391,0.0369,0.0369,0.0369,0.0369,0,0,0.0399,0.0395,0.0396,0.0396,0.0394,0.0395,0.0399,0.0399,0.04,0.04,0.0403,0.0405,0.0401,0.04,0.0397,0.04,0.041,0.0395,0.0395,0.0398,0.0419,0.0423,0.0425,0.0407,0.0407,0.0407,0.0419,0,0.0411,0.0416,0.0412,0.0418,0.042,0.0413,0.0416,0.0415,0.0413,0.0415,0.0412,0.0414,0.0408,0.0408,0.0411,0.0408,0.0414,0.0407,0.041,0.041,0.041,0.0427,0.043,0.0442,0.0421,0.0421,0.0421,0,0.0425,0.0425,0.0432,0.0429,0.043,0.0433,0.0433,0.0434,0.0433,0.0431,0.0431,0.0427,0.043,0.0423,0.0428,0.0423,0.0424,0.0423,0.0423,0.0423,0.0416,0.0427,0.0445,0.0447,0.0424,0.0423,0.0423,0,0.0438,0.044,0.0444,0.0444,0.0441,0.0443,0.0442,0.044,0.0441,0.0441,0.0441,0.0442,0.0442,0.0443,0.0439,0.0434,0.0444,0.0437,0.0443,0.0443,0.0445,0.0445,0.0463,0.0445,0.0445,0.0445,0.0445,0,0.0452,0.0456,0.045,0.0452,0.0457,0.0452,0.0457,0.0455,0.0454,0.0456,0.045,0.0453,0.0447,0.0449,0.0446,0.045,0.045,0.0449,0.0448,0.0449,0.0449,0.045,0.0449,0.0446,0.0446,0.0446,0.0445,0,0.0467,0.0463,0.0467,0.0464,0.0463,0.0467,0.0464,0.0467,0.0464,0.0467,0.0467,0.0463,0.0465,0.0461,0.0462,0.046,0.0466,0.0464,0.0467,0.0466,0.0472,0.0471,0.0491,0.0493,0.0474,0.0474,0.0475,0,0.0476,0.0479,0.0476,0.0477,0.0476,0.0478,0.0479,0.0474,0.0475,0.0474,0.0476,0.0477,0.0478,0.0481,0.0479,0.0479,0.0477,0.0484,0.0477,0.0479,0.0477,0.0477,0.0478,0.0486,0.0486,0.0486,0.0486,0,0.0492,0.049,0.0491,0.0491,0.0492,0.0492,0.0492,0.0493,0.0488,0.0489,0.0491,0.0492,0.0493,0.0494,0.0494,0.0493,0.0489,0.0488,0.049,0.0491,0.0492,0.0492,0.0471,0.0488,0.0488,0.0488,0.0487,0.0487,0.0504,0.0507,0.0505,0.0507,0.0506,0.0506,0.0508,0.0506,0.0507,0.0508,0.0505,0.0507,0.0506,0.0506,0.0505,0.0507,0.0504,0.0506,0.0506,0.0507,0.0508,0.0492,0.0507,0.0507,0.0507,0.0507,0.0507,0,0.052,0.0519,0.052,0.052,0.0521,0.0517,0.0516,0.0518,0.052,0.0519,0.052,0.0522,0.0523,0.0521,0.0522,0.0524,0.0522,0.0524,0.0524,0.0524,0.0511,0.0509,0.0526,0.0526,0.0526,0.0526,0.0526,0.0526,0.0529,0.0533,0.0531,0.0534,0.0533,0.0535,0.0535,0.0535,0.0535,0.0537,0.0538,0.0536,0.0535,0.0536,0.0537,0.0536,0.0537,0.054,0.0538,0.0526,0.0524,0.0523,0.0522,0.054,0.054,0.0551,0.0551,0.0551]},{"header":{"parameterUnit":"m.s-1","parameterCategory":1,"la1":30.2991,"la2":30.254,"lo1":-89.0895,"lo2":-89.0444,"dy":0.0017,"dx":0.0017,"nx":28,"ny":28,"refTime":"2025-11-16T09:00:00:Z","depth":0,"parameterNumber":3,"parameterNumberName":"V-component_of_WINDS"},"data":[0,0,0,0,0,0,0,0,0,0,0,0,0,0,0,0,0,0,0,0,0,0,0,0,0,0,0,0,0,0,0,0,0,0,0,0,0,0,0,0,0,0,0,0,0,0,0,0,0,0,0,0,0,0,0,0,0,0,-0.1683,-0.1683,0,-0.1723,-0.1723,-0.1723,-0.1731,-0.1731,-0.173,-0.173,-0.1774,-0.1776,-0.1777,0,0,0,0,0,0,0,0,0,0,0,0,0,-0.1618,-0.1619,-0.1683,-0.1683,-0.1684,-0.1722,-0.1723,-0.1724,-0.1731,-0.1731,-0.173,-0.173,-0.1774,-0.1775,-0.1777,0,0,0,0,0,0,0,0,0,0,0,0,0,-0.1651,-0.1619,-0.1683,-0.1692,-0.1693,-0.1722,-0.1723,-0.1724,-0.1731,-0.1731,-0.173,-0.173,-0.1773,-0.1775,-0.1777,-0.1801,0,0,-0.1784,-0.1785,0,0,0,0,0,0,0,0,-0.1649,-0.1653,-0.169,-0.1692,-0.1693,-0.1721,-0.1716,-0.175,-0.1731,-0.1717,-0.173,-0.173,-0.1757,-0.1761,-0.1769,-0.1803,-0.1805,-0.1784,-0.1786,-0.1787,-0.1787,0,0,0,0,0,0,0,-0.1647,-0.1651,-0.1699,-0.1691,-0.1693,-0.1696,-0.17,-0.1723,-0.1739,-0.1718,-0.1719,-0.1723,-0.1758,-0.1767,-0.177,-0.1805,-0.1784,-0.1786,-0.1788,-0.1789,-0.1862,-0.1862,0,0,0,0,0,0,-0.1642,-0.1649,-0.1697,-0.17,-0.1669,-0.1697,-0.1702,-0.1713,-0.1739,-0.1743,-0.1724,-0.1723,-0.1764,-0.1768,-0.1772,-0.1802,-0.1787,-0.1789,-0.179,-0.1861,-0.1862,-0.1863,0,0,0,0,0,0,-0.1641,-0.1646,-0.1696,-0.1675,-0.1681,-0.1699,-0.1711,-0.1714,-0.1723,-0.1743,-0.1747,-0.173,-0.1763,-0.1769,-0.1794,-0.1804,-0.179,-0.1792,-0.186,-0.1861,-0.1862,-0.1861,0,0,0,0,0,0,-0.1639,-0.1646,-0.1654,-0.1675,-0.1682,-0.1716,-0.1712,-0.1715,-0.1726,-0.1727,-0.175,-0.1753,-0.1763,-0.179,-0.1796,-0.1806,-0.1793,-0.186,-0.1861,-0.1862,-0.1861,-0.1862,-0.1864,0,0,0,0,0,-0.1636,-0.1652,-0.1654,-0.166,-0.1693,-0.1716,-0.1721,-0.1731,-0.1727,-0.1736,-0.1749,-0.1753,-0.1801,-0.1793,-0.1799,-0.181,-0.1859,-0.186,-0.1862,-0.186,-0.1862,-0.1864,0,0,0,0,0,0,-0.1633,-0.1655,-0.1657,-0.168,-0.1696,-0.1717,-0.1729,-0.1732,-0.175,-0.175,-0.1763,-0.1768,-0.1793,-0.1804,-0.1794,-0.1835,-0.183,-0.1833,-0.1827,-0.1829,-0.183,-0.1827,-0.1795,0,0,0,0,0,-0.1634,-0.165,-0.167,-0.1688,-0.1696,-0.1711,-0.1722,-0.1728,-0.1746,-0.1753,-0.1767,-0.1785,-0.1805,-0.1817,-0.1836,-0.1862,-0.1868,-0.1873,-0.1875,-0.1876,-0.1878,-0.1894,-0.1897,-0.1867,-0.1867,-0.1867,0,0,-0.1639,-0.1653,-0.1662,-0.1688,-0.1701,-0.1719,-0.1717,-0.1735,-0.1749,-0.1756,-0.178,-0.1792,-0.1812,-0.1838,-0.185,-0.1849,-0.1888,-0.1878,-0.1878,-0.188,-0.1896,-0.1899,-0.1902,-0.1868,-0.1868,-0.1868,0,0,-0.1655,-0.1667,-0.1684,-0.1697,-0.1716,-0.1726,-0.1731,-0.1751,-0.1759,-0.1783,-0.1789,-0.1807,-0.1839,-0.1854,-0.1866,-0.1889,-0.1894,-0.1895,-0.1903,-0.1919,-0.1921,-0.1923,-0.1932,-0.1935,-0.1898,-0.1898,-0.1898,0,-0.1658,-0.1683,-0.1693,-0.1711,-0.1723,-0.1729,-0.1748,-0.176,-0.1785,-0.1794,-0.1791,-0.1833,-0.1848,-0.1878,-0.1883,-0.1892,-0.1899,-0.1893,-0.192,-0.1922,-0.1924,-0.1933,-0.1937,-0.1898,-0.1898,-0.1898,-0.1898,0,-0.1687,-0.1704,-0.1716,-0.1739,-0.1752,-0.1771,-0.1784,-0.1797,-0.1802,-0.1813,-0.1839,-0.1856,-0.1879,-0.1887,-0.1893,-0.1918,-0.1917,-0.1917,-0.1912,-0.1927,-0.1936,-0.1939,-0.1898,-0.1898,-0.1898,-0.1898,0,0,-0.1702,-0.173,-0.1734,-0.1745,-0.1767,-0.1782,-0.1801,-0.1823,-0.1834,-0.1851,-0.1869,-0.1897,-0.1897,-0.1911,-0.1919,-0.1932,-0.1951,-0.1931,-0.1931,-0.1935,-0.1981,-0.1982,-0.1986,-0.1954,-0.1954,-0.1955,-0.198,0,-0.1722,-0.1755,-0.1764,-0.1793,-0.181,-0.1817,-0.1834,-0.185,-0.1861,-0.1879,-0.1891,-0.1911,-0.1909,-0.1918,-0.1931,-0.1946,-0.1961,-0.1944,-0.1972,-0.1972,-0.1967,-0.199,-0.199,-0.2013,-0.1983,-0.1984,-0.1984,0,-0.1749,-0.1766,-0.1796,-0.1817,-0.1824,-0.1839,-0.1861,-0.1877,-0.1896,-0.1903,-0.1918,-0.1925,-0.1947,-0.1941,-0.1973,-0.1961,-0.1973,-0.1982,-0.1983,-0.1987,-0.198,-0.1995,-0.202,-0.2024,-0.199,-0.1989,-0.1989,0,-0.1758,-0.1789,-0.1811,-0.182,-0.1844,-0.1855,-0.1866,-0.1885,-0.1897,-0.1917,-0.1925,-0.1947,-0.1959,-0.1977,-0.199,-0.1984,-0.2021,-0.2015,-0.2029,-0.2028,-0.2036,-0.2036,-0.2065,-0.2043,-0.2043,-0.2043,-0.2043,0,-0.178,-0.1798,-0.1815,-0.1829,-0.185,-0.1862,-0.1883,-0.1895,-0.1911,-0.1929,-0.1936,-0.1953,-0.1969,-0.1988,-0.1998,-0.2024,-0.2029,-0.2037,-0.2039,-0.2036,-0.2035,-0.2045,-0.2044,-0.2044,-0.2044,-0.2043,-0.2043,0,-0.1794,-0.1806,-0.1831,-0.1852,-0.1857,-0.1872,-0.1891,-0.1906,-0.1917,-0.1939,-0.1945,-0.1963,-0.1986,-0.2,-0.203,-0.2037,-0.2065,-0.2067,-0.2058,-0.206,-0.2072,-0.2071,-0.2109,-0.2115,-0.2088,-0.2088,-0.2089,0,-0.1807,-0.1821,-0.1844,-0.1855,-0.1866,-0.1884,-0.1897,-0.191,-0.1923,-0.1947,-0.1959,-0.1982,-0.2001,-0.2037,-0.2054,-0.2077,-0.208,-0.2092,-0.2084,-0.2081,-0.2082,-0.2081,-0.2083,-0.2094,-0.2094,-0.2094,-0.2094,0,-0.1829,-0.1835,-0.1852,-0.1872,-0.1887,-0.1904,-0.1921,-0.193,-0.1946,-0.1961,-0.1984,-0.1998,-0.2028,-0.2052,-0.2076,-0.2089,-0.2095,-0.2096,-0.2101,-0.2098,-0.2093,-0.2097,-0.2063,-0.2096,-0.2095,-0.2095,-0.2095,-0.2095,-0.1844,-0.1857,-0.1875,-0.1895,-0.1909,-0.1925,-0.1939,-0.1952,-0.1971,-0.1995,-0.2002,-0.2026,-0.2047,-0.208,-0.2094,-0.2114,-0.2113,-0.2119,-0.2121,-0.2122,-0.2123,-0.2089,-0.2119,-0.2119,-0.2119,-0.2119,-0.2119,0,-0.1868,-0.188,-0.1898,-0.192,-0.1937,-0.1939,-0.1958,-0.1972,-0.1992,-0.201,-0.2029,-0.2056,-0.2079,-0.2098,-0.2122,-0.2135,-0.2138,-0.2141,-0.214,-0.2144,-0.2122,-0.2116,-0.2138,-0.2138,-0.2138,-0.2138,-0.2138,-0.2138,-0.1882,-0.1905,-0.1913,-0.1943,-0.1955,-0.1978,-0.1989,-0.2004,-0.2019,-0.2048,-0.2067,-0.2078,-0.2097,-0.2123,-0.2145,-0.215,-0.2159,-0.2161,-0.2167,-0.2147,-0.2145,-0.2143,-0.2138,-0.2163,-0.2163,-0.2187,-0.2187,-0.2187]}]]